Satellite: NOAA-12 Catalog number: 21263 Epoch time: 14051.51824564 Element set: 174 Inclination: 098.6756 deg RA of node: 079.6465 deg Eccentricity: 0.0013477 Arg of perigee: 213.1360 deg Mean anomaly: 305.0709 deg Mean motion: 14.25627460 rev/day Decay rate: 9.4e-07 rev/day^2 Epoch rev: 18393 Checksum: 300
Satellite: MET-3/5 Catalog number: 21655 Epoch time: 14051.13130453 Element set: 907 Inclination: 082.5526 deg RA of node: 079.1280 deg Eccentricity: 0.0012600 Arg of perigee: 225.2162 deg Mean anomaly: 134.7936 deg Mean motion: 13.17055637 rev/day Decay rate: -2.67e-06 rev/day^2 Epoch rev: 8257 Checksum: 277
Satellite: MET-2/21 Catalog number: 22782 Epoch time: 14051.15979530 Element set: 982 Inclination: 082.5464 deg RA of node: 266.1587 deg Eccentricity: 0.0021496 Arg of perigee: 231.1021 deg Mean anomaly: 263.6080 deg Mean motion: 13.83724670 rev/day Decay rate: 7.7e-07 rev/day^2 Epoch rev: 3393 Checksum: 300
Satellite: OKEAN-4 Catalog number: 23317 Epoch time: 14051.88769066 Element set: 462 Inclination: 082.5405 deg RA of node: 176.9297 deg Eccentricity: 0.0022138 Arg of perigee: 123.3474 deg Mean anomaly: 357.4923 deg Mean motion: 14.85120238 rev/day Decay rate: 2.040e-05 rev/day^2 Epoch rev: 4584 Checksum: 301
Satellite: NOAA-14 Catalog number: 23455 Epoch time: 14051.31573192 Element set: 655 Inclination: 098.7835 deg RA of node: 136.8047 deg Eccentricity: 0.0009456 Arg of perigee: 019.1815 deg Mean anomaly: 049.6854 deg Mean motion: 14.13950415 rev/day Decay rate: 1.0e-08 rev/day^2 Epoch rev: 98743 Checksum: 313
Satellite: NOAA-15 Catalog number: 25338 Epoch time: 14051.52901000 Element set: 85 Inclination: 098.7463 deg RA of node: 045.6602 deg Eccentricity: 0.0011708 Arg of perigee: 124.9552 deg Mean anomaly: 343.5317 deg Mean motion: 14.25346958 rev/day Decay rate: 2.26e-06 rev/day^2 Epoch rev: 82022 Checksum: 280
Satellite: RESURS Catalog number: 25394 Epoch time: 14050.84199991 Element set: 592 Inclination: 098.3981 deg RA of node: 020.2479 deg Eccentricity: 0.0000791 Arg of perigee: 186.0268 deg Mean anomaly: 228.9829 deg Mean motion: 14.24368514 rev/day Decay rate: 7.2e-07 rev/day^2 Epoch rev: 81161 Checksum: 323
Satellite: FENGYUN1 Catalog number: 25730 Epoch time: 14051.88824119 Element set: 84 Inclination: 098.9039 deg RA of node: 013.7883 deg Eccentricity: 0.0028653 Arg of perigee: 074.2912 deg Mean anomaly: 344.0101 deg Mean motion: 14.11399805 rev/day Decay rate: 2.629e-05 rev/day^2 Epoch rev: 76111 Checksum: 296
Satellite: OKEAN-0 Catalog number: 25860 Epoch time: 14050.95967600 Element set: 179 Inclination: 098.0279 deg RA of node: 015.6424 deg Eccentricity: 0.0002066 Arg of perigee: 095.8816 deg Mean anomaly: 305.2435 deg Mean motion: 14.74982904 rev/day Decay rate: 9.68e-06 rev/day^2 Epoch rev: 78487 Checksum: 335
Satellite: NOAA-16 Catalog number: 26536 Epoch time: 14051.25937318 Element set: 572 Inclination: 099.0058 deg RA of node: 111.0346 deg Eccentricity: 0.0011323 Arg of perigee: 152.6316 deg Mean anomaly: 276.8408 deg Mean motion: 14.12991019 rev/day Decay rate: 8.3e-07 rev/day^2 Epoch rev: 69160 Checksum: 289
Satellite: NOAA-17 Catalog number: 27453 Epoch time: 14051.50200642 Element set: 477 Inclination: 098.3126 deg RA of node: 057.3747 deg Eccentricity: 0.0012509 Arg of perigee: 152.7586 deg Mean anomaly: 358.7457 deg Mean motion: 14.24688334 rev/day Decay rate: 1.93e-06 rev/day^2 Epoch rev: 60607 Checksum: 314
Satellite: NOAA-18 Catalog number: 28654 Epoch time: 14051.54419066 Element set: 960 Inclination: 099.1357 deg RA of node: 028.7839 deg Eccentricity: 0.0013645 Arg of perigee: 228.6397 deg Mean anomaly: 239.5103 deg Mean motion: 14.11949765 rev/day Decay rate: 2.06e-06 rev/day^2 Epoch rev: 45110 Checksum: 321
Satellite: NOAA-19 Catalog number: 33591 Epoch time: 14051.48206660 Element set: 131 Inclination: 098.9334 deg RA of node: 356.9452 deg Eccentricity: 0.0015193 Arg of perigee: 089.4622 deg Mean anomaly: 044.4826 deg Mean motion: 14.11642103 rev/day Decay rate: 3.46e-06 rev/day^2 Epoch rev: 25952 Checksum: 296
/EX SB KEPS @ AMSAT $ORB14051.M Orbital Elements 14051.MISC
HR AMSAT ORBITAL ELEMENTS FOR MANNED AND MISCELLANEOUS SATELLITES FROM WA5QGD FORT WORTH,TX February 20, 2014 BID: ORB14051.M TO ALL RADIO AMATEURS BT
Satellite: HUBBLE Catalog number: 20580 Epoch time: 14051.49791012 Element set: 442 Inclination: 028.4707 deg RA of node: 083.8817 deg Eccentricity: 0.0003428 Arg of perigee: 117.8531 deg Mean anomaly: 359.3045 deg Mean motion: 15.04712062 rev/day Decay rate: 3.190e-05 rev/day^2 Epoch rev: 10712 Checksum: 264
Satellite: ISS Catalog number: 25544 Epoch time: 14051.89942882 Element set: 720 Inclination: 051.6510 deg RA of node: 316.0550 deg Eccentricity: 0.0004014 Arg of perigee: 159.4099 deg Mean anomaly: 292.3514 deg Mean motion: 15.50572403 rev/day Decay rate: 1.9211e-04 rev/day^2 Epoch rev: 87328 Checksum: 281
Satellite: CO-58 Catalog number: 28895 Epoch time: 14051.36378757 Element set: 700 Inclination: 097.8452 deg RA of node: 259.2442 deg Eccentricity: 0.0017733 Arg of perigee: 023.7410 deg Mean anomaly: 336.4607 deg Mean motion: 14.61578678 rev/day Decay rate: 9.97e-06 rev/day^2 Epoch rev: 44318 Checksum: 347
Satellite: FALCON Catalog number: 30776 Epoch time: 14051.63269257 Element set: 806 Inclination: 035.4296 deg RA of node: 114.2696 deg Eccentricity: 0.0001339 Arg of perigee: 255.5698 deg Mean anomaly: 236.5131 deg Mean motion: 15.13866613 rev/day Decay rate: 1.0325e-04 rev/day^2 Epoch rev: 38304 Checksum: 299
Satellite: MAST Catalog number: 31126 Epoch time: 14051.85938994 Element set: 978 Inclination: 097.9038 deg RA of node: 038.9056 deg Eccentricity: 0.0092224 Arg of perigee: 358.1826 deg Mean anomaly: 063.5869 deg Mean motion: 14.54991361 rev/day Decay rate: 1.326e-05 rev/day^2 Epoch rev: 36347 Checksum: 345
Satellite: CAPE1 Catalog number: 31130 Epoch time: 14051.86609896 Element set: 983 Inclination: 097.9239 deg RA of node: 035.4331 deg Eccentricity: 0.0099944 Arg of perigee: 015.3657 deg Mean anomaly: 345.0537 deg Mean motion: 14.54043064 rev/day Decay rate: 2.075e-05 rev/day^2 Epoch rev: 36290 Checksum: 312
Satellite: COMPASS Catalog number: 32787 Epoch time: 14051.79263400 Element set: 862 Inclination: 097.7176 deg RA of node: 108.6297 deg Eccentricity: 0.0013991 Arg of perigee: 200.4970 deg Mean anomaly: 159.5686 deg Mean motion: 14.86907098 rev/day Decay rate: 3.947e-05 rev/day^2 Epoch rev: 31488 Checksum: 347
Satellite: AAUSAT2 Catalog number: 32788 Epoch time: 14051.10913548 Element set: 846 Inclination: 097.7189 deg RA of node: 108.8192 deg Eccentricity: 0.0013469 Arg of perigee: 200.9325 deg Mean anomaly: 159.1341 deg Mean motion: 14.87501407 rev/day Decay rate: 4.400e-05 rev/day^2 Epoch rev: 31483 Checksum: 300
Satellite: DO-64 Catalog number: 32789 Epoch time: 14051.83151332 Element set: 884 Inclination: 097.7353 deg RA of node: 114.9855 deg Eccentricity: 0.0013040 Arg of perigee: 188.6343 deg Mean anomaly: 222.5352 deg Mean motion: 14.91323880 rev/day Decay rate: 8.807e-05 rev/day^2 Epoch rev: 31514 Checksum: 310
Satellite: CO-66 Catalog number: 32791 Epoch time: 14051.11197509 Element set: 842 Inclination: 097.7174 deg RA of node: 106.9607 deg Eccentricity: 0.0014366 Arg of perigee: 205.3736 deg Mean anomaly: 154.6775 deg Mean motion: 14.85764693 rev/day Decay rate: 2.680e-05 rev/day^2 Epoch rev: 31466 Checksum: 335
Satellite: RS-30 Catalog number: 32953 Epoch time: 14051.92728419 Element set: 671 Inclination: 082.4999 deg RA of node: 273.5094 deg Eccentricity: 0.0019509 Arg of perigee: 050.3119 deg Mean anomaly: 309.9683 deg Mean motion: 12.43042890 rev/day Decay rate: 1.0e-07 rev/day^2 Epoch rev: 26081 Checksum: 306
Satellite: METEOR-M Catalog number: 35865 Epoch time: 14051.76728896 Element set: 277 Inclination: 098.5639 deg RA of node: 102.6223 deg Eccentricity: 0.0003162 Arg of perigee: 080.2398 deg Mean anomaly: 279.9092 deg Mean motion: 14.21908539 rev/day Decay rate: 3.3e-07 rev/day^2 Epoch rev: 22979 Checksum: 331
Satellite: RS-38 Catalog number: 35869 Epoch time: 14051.78226412 Element set: 225 Inclination: 098.5598 deg RA of node: 102.4774 deg Eccentricity: 0.0005643 Arg of perigee: 080.5550 deg Mean anomaly: 054.9645 deg Mean motion: 14.22180717 rev/day Decay rate: 7.0e-07 rev/day^2 Epoch rev: 22982 Checksum: 311
Satellite: JUGNU Catalog number: 37839 Epoch time: 14051.74328953 Element set: 565 Inclination: 019.9607 deg RA of node: 240.6450 deg Eccentricity: 0.0018881 Arg of perigee: 141.0044 deg Mean anomaly: 325.5181 deg Mean motion: 14.12249883 rev/day Decay rate: 4.88e-06 rev/day^2 Epoch rev: 12207 Checksum: 299
Satellite: SRMSAT Catalog number: 37841 Epoch time: 14051.02208169 Element set: 566 Inclination: 019.9712 deg RA of node: 261.9918 deg Eccentricity: 0.0011910 Arg of perigee: 076.8437 deg Mean anomaly: 082.1079 deg Mean motion: 14.10301654 rev/day Decay rate: 4.71e-06 rev/day^2 Epoch rev: 12180 Checksum: 276
Satellite: RAX-2 Catalog number: 37853 Epoch time: 14051.85723735 Element set: 730 Inclination: 101.7141 deg RA of node: 026.2370 deg Eccentricity: 0.0224518 Arg of perigee: 032.9596 deg Mean anomaly: 021.4885 deg Mean motion: 14.86954372 rev/day Decay rate: 1.5759e-04 rev/day^2 Epoch rev: 12535 Checksum: 308
Satellite: AUBIESAT Catalog number: 37854 Epoch time: 14051.87345144 Element set: 713 Inclination: 101.7185 deg RA of node: 027.7333 deg Eccentricity: 0.0223364 Arg of perigee: 030.7224 deg Mean anomaly: 025.6483 deg Mean motion: 14.88010075 rev/day Decay rate: 1.7980e-04 rev/day^2 Epoch rev: 12539 Checksum: 285
